Weather History for Chipley, FL

Change the Weather History Date:

Monday, June 17, 2013

  Actual Average (KMAI) Record (KMAI)
Temperature  
Mean Temperature 86 °F -  
Max Temperature 93 °F 91 °F 100 °F (1998)
Min Temperature 80 °F - 66 °F (2002)
Degree Days  
Heating Degree Days 0    
Month to date heating degree days  
Since 1 June heating degree days  
Since 1 July heating degree days  
Cooling Degree Days 22    
Month to date cooling degree days  
Year to date cooling degree days  
Since 1 June cooling degree days  
Growing Degree Days 36 (Base 50)    
Moisture  
Dew Point 72 °F    
Average Humidity 62    
Maximum Humidity 74    
Minimum Humidity 46    
Precipitation  
Precipitation 0.00 in 0.19 in 1.16 in (1997)
Month to date precipitation 3.05  
Year to date precipitation 25.27  
Sea Level Pressure  
Sea Level Pressure 30.00 in    
Wind  
Wind Speed 5 mph (SSW)    
Max Wind Speed 14 mph    
Max Gust Speed 21 mph    
Visibility 10 miles    
Events      
T = Trace of Precipitation, MM = Missing Value Source: NWS Daily Summary

Daily Weather History Graph

Daily Weather History Graph

Search for Another Location

Airport:

Trip Planner

Search our weather history database for the weather conditions in past years. The results will help you decide how hot, cold, wet, or windy it might be!

Date:

Astronomy

Jun. 17, 2013 Rise Set
Actual Time 5:39 AM CDT 7:47 PM CDT
Civil Twilight 5:11 AM CDT 8:15 PM CDT
Nautical Twilight 4:37 AM CDT 8:49 PM CDT
Astronomical Twilight 4:01 AM CDT 9:25 PM CDT
Moon 1:44 PM CDT (6/17) 12:52 AM CDT (6/17)
Length of Visible Light 15h 03m
Length of Day
14h 08m
First Quarter, 60% of the Moon is Illuminated
Jun 17
First Quarter
Jun 23
Full
Jun 29
Last Quarter
Jul 8
New
Jul 15
First Quarter

Hourly Weather History & Observations

Time (CDT) Temp. Heat Index Dew Point Humidity Pressure Visibility Wind Dir Wind Speed Gust Speed Precip Events Conditions
12:15 AM 84.2 °F 89.6 °F 71.6 °F 66% 30.02 in 10.0 mi SSW 6.9 mph - N/A   Clear
12:35 AM 82.4 °F 87.2 °F 71.6 °F 70% 30.02 in 10.0 mi SSW 4.6 mph - N/A   Clear
12:55 AM 82.4 °F 87.2 °F 71.6 °F 70% 30.02 in 10.0 mi SSW 4.6 mph - N/A   Clear
1:15 AM 82.4 °F 87.2 °F 71.6 °F 70% 30.02 in 10.0 mi SSW 3.5 mph - N/A   Clear
1:35 AM 82.4 °F 87.2 °F 71.6 °F 70% 30.02 in 10.0 mi SSW 4.6 mph - N/A   Clear
1:55 AM 82.4 °F 87.2 °F 71.6 °F 70% 30.01 in 10.0 mi SSW 4.6 mph - N/A   Clear
2:15 AM 82.4 °F 87.2 °F 71.6 °F 70% 30.01 in 10.0 mi Calm Calm - N/A   Clear
2:35 AM 82.4 °F 87.2 °F 71.6 °F 70% 30.01 in 10.0 mi Calm Calm - N/A   Clear
2:55 AM 82.4 °F 87.2 °F 71.6 °F 70% 30.00 in 10.0 mi SSW 3.5 mph - N/A   Clear
3:15 AM 80.6 °F 84.6 °F 71.6 °F 74% 30.01 in 10.0 mi SSW 3.5 mph - N/A   Clear
3:35 AM 80.6 °F 84.6 °F 71.6 °F 74% 30.01 in 10.0 mi Calm Calm - N/A   Clear
3:55 AM 80.6 °F 84.6 °F 71.6 °F 74% 30.00 in 10.0 mi SSW 3.5 mph - N/A   Clear
4:15 AM 80.6 °F 84.6 °F 71.6 °F 74% 30.00 in 10.0 mi Calm Calm - N/A   Clear
4:35 AM 80.6 °F 84.6 °F 71.6 °F 74% 30.00 in 10.0 mi Calm Calm - N/A   Clear
4:55 AM 80.6 °F 84.6 °F 71.6 °F 74% 30.00 in 10.0 mi Calm Calm - N/A   Clear
5:15 AM 80.6 °F 84.6 °F 71.6 °F 74% 30.00 in 10.0 mi Calm Calm - N/A   Clear
5:35 AM 80.6 °F 84.6 °F 71.6 °F 74% 30.01 in 10.0 mi Calm Calm - N/A   Clear
5:55 AM 80.6 °F 84.6 °F 71.6 °F 74% 30.01 in 10.0 mi Calm Calm - N/A   Clear
6:15 AM 80.6 °F 84.6 °F 71.6 °F 74% 30.01 in 10.0 mi South 3.5 mph - N/A   Clear
6:35 AM 82.4 °F 87.2 °F 71.6 °F 70% 30.01 in 10.0 mi Calm Calm - N/A   Clear
6:55 AM 82.4 °F 87.2 °F 71.6 °F 70% 30.01 in 10.0 mi Calm Calm - N/A   Clear
7:15 AM 82.4 °F 87.2 °F 71.6 °F 70% 30.01 in 10.0 mi Calm Calm - N/A   Clear
7:35 AM 82.4 °F 88.2 °F 73.4 °F 74% 30.01 in 10.0 mi South 3.5 mph - N/A   Clear
7:55 AM 84.2 °F 90.9 °F 73.4 °F 70% 30.01 in 10.0 mi SW 4.6 mph - N/A   Clear
8:15 AM 86.0 °F 93.4 °F 73.4 °F 66% 30.02 in 10.0 mi South 6.9 mph - N/A   Partly Cloudy
8:35 AM 86.0 °F 93.4 °F 73.4 °F 66% 30.01 in 10.0 mi SW 5.8 mph - N/A   Scattered Clouds
8:55 AM 87.8 °F 95.6 °F 73.4 °F 62% 30.02 in 10.0 mi SW 5.8 mph - N/A   Mostly Cloudy
9:15 AM 86.0 °F 93.4 °F 73.4 °F 66% 30.02 in 10.0 mi SW 5.8 mph - N/A   Mostly Cloudy
9:35 AM 86.0 °F 93.4 °F 73.4 °F 66% 30.02 in 10.0 mi SW 4.6 mph - N/A   Mostly Cloudy
9:55 AM 87.8 °F 95.6 °F 73.4 °F 62% 30.03 in 10.0 mi WSW 6.9 mph - N/A   Partly Cloudy
10:15 AM 89.6 °F 96.2 °F 71.6 °F 55% 30.03 in 10.0 mi SSW 3.5 mph - N/A   Scattered Clouds
10:35 AM 89.6 °F 96.2 °F 71.6 °F 55% 30.03 in 10.0 mi South 8.1 mph - N/A   Mostly Cloudy
10:55 AM 87.8 °F 95.6 °F 73.4 °F 62% 30.04 in 10.0 mi South 13.8 mph 20.7 mph N/A   Mostly Cloudy
11:15 AM 89.6 °F 98.2 °F 73.4 °F 59% 30.04 in 10.0 mi South 10.4 mph - N/A   Mostly Cloudy
11:35 AM 89.6 °F 96.2 °F 71.6 °F 55% 30.03 in 10.0 mi South 11.5 mph - N/A   Partly Cloudy
11:55 AM 89.6 °F 98.2 °F 73.4 °F 59% 30.04 in 10.0 mi SSW 8.1 mph 19.6 mph N/A   Scattered Clouds
12:15 PM 87.8 °F 95.6 °F 73.4 °F 62% 30.04 in 10.0 mi SW 8.1 mph 17.3 mph N/A   Mostly Cloudy
12:35 PM 87.8 °F 93.8 °F 71.6 °F 58% 30.04 in 10.0 mi SW 8.1 mph - N/A   Mostly Cloudy
12:55 PM 87.8 °F 93.8 °F 71.6 °F 58% 30.04 in 10.0 mi SSW 6.9 mph - N/A   Overcast
1:15 PM 87.8 °F 93.8 °F 71.6 °F 58% 30.03 in 10.0 mi SW 4.6 mph - N/A   Mostly Cloudy
1:35 PM 89.6 °F 98.2 °F 73.4 °F 59% 30.02 in 10.0 mi WSW 8.1 mph - N/A   Mostly Cloudy
1:55 PM 89.6 °F 98.2 °F 73.4 °F 59% 30.00 in 10.0 mi West 5.8 mph - N/A   Overcast
2:15 PM 89.6 °F 96.2 °F 71.6 °F 55% 30.00 in 10.0 mi SW 6.9 mph - N/A   Mostly Cloudy
2:35 PM 91.4 °F 98.4 °F 71.6 °F 52% 29.99 in 10.0 mi WSW 5.8 mph - N/A   Partly Cloudy
2:55 PM 91.4 °F 100.1 °F 73.4 °F 55% 29.99 in 10.0 mi WSW 5.8 mph - N/A   Unknown
3:15 PM 89.6 °F 99.8 °F 75.2 °F 62% 29.97 in 10.0 mi Calm Calm - N/A   Mostly Cloudy
3:35 PM 91.4 °F 100.1 °F 73.4 °F 55% 29.96 in 10.0 mi SSW 9.2 mph - N/A   Mostly Cloudy
3:55 PM 93.2 °F 102.4 °F 73.4 °F 52% 29.96 in 10.0 mi WSW 5.8 mph - N/A   Partly Cloudy
4:15 PM 91.4 °F 100.1 °F 73.4 °F 55% 29.96 in 10.0 mi SSW 8.1 mph - N/A   Clear
4:35 PM 93.2 °F 102.4 °F 73.4 °F 52% 29.95 in 10.0 mi SW 6.9 mph - N/A   Mostly Cloudy
4:55 PM 93.2 °F 100.5 °F 71.6 °F 49% 29.96 in 10.0 mi SSW 6.9 mph - N/A   Mostly Cloudy
5:15 PM 93.2 °F 98.8 °F 69.8 °F 46% 29.96 in 10.0 mi SW 5.8 mph - N/A   Scattered Clouds
5:35 PM 93.2 °F 100.5 °F 71.6 °F 49% 29.95 in 10.0 mi South 8.1 mph - N/A   Mostly Cloudy
5:55 PM 93.2 °F 100.5 °F 71.6 °F 49% 29.95 in 10.0 mi South 9.2 mph 16.1 mph N/A   Mostly Cloudy
6:15 PM 91.4 °F 98.4 °F 71.6 °F 52% 29.95 in 10.0 mi SSW 11.5 mph - N/A   Mostly Cloudy
6:35 PM 91.4 °F 98.4 °F 71.6 °F 52% 29.94 in 10.0 mi SW 6.9 mph - N/A   Clear
6:55 PM 89.6 °F 96.2 °F 71.6 °F 55% 29.95 in 10.0 mi SW 5.8 mph - N/A   Mostly Cloudy
7:15 PM 91.4 °F 98.4 °F 71.6 °F 52% 29.95 in 10.0 mi South 8.1 mph - N/A   Mostly Cloudy
7:35 PM 89.6 °F 96.2 °F 71.6 °F 55% 29.95 in 10.0 mi South 9.2 mph - N/A   Mostly Cloudy
7:55 PM 87.8 °F 93.8 °F 71.6 °F 58% 29.96 in 10.0 mi SSW 8.1 mph - N/A   Mostly Cloudy
8:15 PM 87.8 °F 92.6 °F 69.8 °F 55% 29.96 in 10.0 mi SSW 5.8 mph - N/A   Partly Cloudy
8:35 PM 87.8 °F 92.6 °F 69.8 °F 55% 29.96 in 10.0 mi SSW 5.8 mph - N/A   Scattered Clouds
8:55 PM 87.8 °F 92.6 °F 69.8 °F 55% 29.97 in 10.0 mi SSW 6.9 mph - N/A   Mostly Cloudy
9:15 PM 86.0 °F 90.4 °F 69.8 °F 58% 29.98 in 10.0 mi SSW 6.9 mph - N/A   Mostly Cloudy
9:35 PM 86.0 °F 90.4 °F 69.8 °F 58% 29.98 in 10.0 mi SSW 5.8 mph - N/A   Mostly Cloudy
9:55 PM 86.0 °F 90.4 °F 69.8 °F 58% 29.98 in 10.0 mi SSW 6.9 mph - N/A   Clear
10:15 PM 84.2 °F 89.6 °F 71.6 °F 66% 29.98 in 10.0 mi SSW 5.8 mph - N/A   Clear
10:35 PM 84.2 °F 89.6 °F 71.6 °F 66% 29.98 in 10.0 mi SSW 8.1 mph - N/A   Clear
10:55 PM 84.2 °F 89.6 °F 71.6 °F 66% 29.98 in 10.0 mi SSW 6.9 mph - N/A   Clear
11:15 PM 84.2 °F 89.6 °F 71.6 °F 66% 29.99 in 10.0 mi SSW 4.6 mph - N/A   Clear
11:35 PM 84.2 °F 88.4 °F 69.8 °F 62% 29.99 in 10.0 mi SSW 5.8 mph - N/A   Clear
11:55 PM 84.2 °F 89.6 °F 71.6 °F 66% 29.98 in 10.0 mi SSW 6.9 mph - N/A   Clear